Hourly Weather Roundup
Issued by NWS Central Illinois

Current Version | Previous Version | Text Only | Print | Product List | Glossary On
Versions: 1 2 3 4 5 6 7 8 9 10 11 12 13 14 15 16 17 18 19 20 21 22 23 24 25 26 27 28 29 30 31 32 33 34 35 36 37 38 39 40 41 42 43 44 45 46 47 48 49 50
000
NZUS43 KILX 230010
HWRILX

Area Weather Roundup
National Weather Service Lincoln IL
700 PM CDT TUE AUG 22 2017

NOTE:  "FAIR" indicates few or no clouds below 12,000 feet, with
       no sigificant weather and/or obstructions to visibility.


CITY           SKY/WX    TMP DP  RH WIND       PRES   REMARKS
Bloomington    PTCLDY    73  57  57 N13       30.00R
6HR MIN TEMP:  73; 6HR MAX TEMP:  78;

Champaign      CLEAR     74  58  57 NW8       29.98R
6HR MIN TEMP:  74; 6HR MAX TEMP:  82;

Danville       MOCLDY    72  61  67 NW6       29.94R
6HR MIN TEMP:  72; 6HR MAX TEMP:  80;

Decatur        CLEAR     76  58  53 NW12      29.98R
6HR MIN TEMP:  76; 6HR MAX TEMP:  82;

Effingham      CLEAR     77  63  63 NW8       29.99R
6HR MIN TEMP:  76; 6HR MAX TEMP:  81;

Flora          CLEAR     79  68  70 NW5       29.97S HX  81
6HR MIN TEMP:  76; 6HR MAX TEMP:  82;

Galesburg      CLEAR     71  55  57 NW8       30.03R
Jacksonville   CLEAR     74  56  54 N9        30.00S
6HR MIN TEMP:  74; 6HR MAX TEMP:  80;

Lacon          CLEAR     73  56  57 NW6       29.98S
6HR MIN TEMP:  72; 6HR MAX TEMP:  78;

Lawrenceville  PTCLDY    79  67  66 NW8       29.95R HX  81
6HR MIN TEMP:  76; 6HR MAX TEMP:  84; 6HR PCP: TRACE;

Litchfield     CLEAR     74  62  65 NW7       30.00R
6HR MIN TEMP:  74; 6HR MAX TEMP:  80; 6HR PCP:  0.02;

$$


CITY           SKY/WX    TMP DP  RH WIND       PRES   REMARKS
Lincoln        CLEAR     75  59  58 NW5       29.99S
6HR MIN TEMP:  75; 6HR MAX TEMP:  81;

Macomb         CLEAR     72  58  61 NW7       30.04S
6HR MIN TEMP:  72; 6HR MAX TEMP:  78;

Mattoon        PTCLDY    74  65  73 N9        29.97R
6HR MIN TEMP:  74; 6HR MAX TEMP:  81; 6HR PCP: TRACE;

Mt Carmel AP   PTCLDY    77  67  69 NW6       29.96R
6HR MIN TEMP:  74; 6HR MAX TEMP:  82;

Olney-Noble AP PTCLDY    77  68  75 NW6       29.97R
Paris AP       CLEAR     74  62  64 NW8       29.98R
6HR MIN TEMP:  74; 6HR MAX TEMP:  82;

Peoria         CLEAR     74  54  49 NW7       30.00R
6HR MIN TEMP:  74; 6HR MAX TEMP:  80;

Pontiac        MOCLDY    72  60  65 NW8       29.98S
6HR MIN TEMP:  72; 6HR MAX TEMP:  77;

Rantoul        CLEAR     76  62  63 NW9       29.97R
6HR MIN TEMP:  76; 6HR MAX TEMP:  80;

Robinson       CLEAR     76  67  73 NW6       29.96R
6HR MIN TEMP:  74; 6HR MAX TEMP:  82;

Springfield    CLEAR     76  59  55 NW10      30.00R
6HR MIN TEMP:  76; 6HR MAX TEMP:  82;

Taylorville    CLEAR     73  59  62 NW8       29.99S
6HR MIN TEMP:  73; 6HR MAX TEMP:  81;

$$

...REGIONAL REPORTS...


CITY           SKY/WX    TMP DP  RH WIND       PRES   REMARKS
Chicago O`Hare PTCLDY    76  49  38 NW15      29.94R
Kankakee       CLEAR     73  55  53 NW12      29.96R
Moline         CLEAR     74  50  42 NW15G24   30.01S
Mount Sterling CLEAR     72  56  57 NW10      30.01S
Mount Vernon   NOT AVBL
Pittsfield     CLEAR     74  59  58 NW7       30.03R
Quincy         CLEAR     75  54  47 N14       30.02S
Rockford       PTCLDY    72  50  45 NW12      29.99R
$$


CITY           SKY/WX    TMP DP  RH WIND       PRES   REMARKS
Burlington     CLEAR     73  54  51 NW13G21   30.03S
Cedar Rapids   CLEAR     70  52  52 NW10      30.04S
Des Moines     MOSUNNY   74  49  41 NW10      30.08F
Kirksville     CLEAR     75  50  41 N8        30.07S
Ottumwa        CLEAR     73  49  42 NW15      30.07S
St Louis       PTCLDY    79  61  53 N13       30.00R HX  80
$$


CITY           SKY/WX    TMP DP  RH WIND       PRES   REMARKS
Terre Haute    MOCLDY    77  63  61 N10G18    29.95R
Evansville     PTCLDY    79  68  69 NW6       29.95F HX  81
Indianapolis   PTCLDY    76  64  66 NW17      29.93R
Lafayette      PTCLDY    71  63  75 W6        29.93S
Madison        PTCLDY    70  50  49 NW6       29.97F
Milwaukee      PTCLDY    75  48  38 NW14      29.94R
$$





USA.gov is the U.S. government's official web portal to all federal, state and local government web resources and services.